Regional Weather Roundup
Issued by NWS

Home | Current Version | Previous Version | Graphics & Text | Print | Product List | Glossary On
Versions: 1 2 3 4 5 6 7 8 9 10 11 12 13 14 15 16 17 18 19 20 21 22 23 24 25 26 27 28 29 30 31 32 33 34 35 36 37 38 39 40 41 42 43 44 45 46 47 48 49 50
886
ASUS43 KLSX 140610
RWRMO

WEATHER SUMMARY FOR MISSOURI
NATIONAL WEATHER SERVICE SPRINGFIELD MO
1200 AM CST SUN FEB 14 2016

NOTE: "FAIR" INDICATES FEW OR NO CLOUDS BELOW 12,000 FEET WITH NO
       SIGNIFICANT WEATHER AND/OR OBSTRUCTIONS TO VISIBILITY.
       CURRENT SKY AND/OR WEATHER CONDITIONS ARE NOT AVAILABLE FOR
       CHILLICOTHE AND FARMINGTON.

MOZ001>031-035>038-043-044-053-054-140700-
...NORTHERN AND WESTERN MISSOURI...

CITY           SKY/WX    TMP DP  RH WIND       PRES   REMARKS
KANSAS CTY INT CLOUDY    22   5  48 E15       30.18F WCI   9
6HR MIN TEMP:  20; 6HR MAX TEMP:  22;

KANSAS C DTWN  CLOUDY    24   5  44 E10       30.20F WCI  14
6HR MIN TEMP:  22; 6HR MAX TEMP:  24;

LEE`S SUMMIT   CLOUDY    23   4  44 E12       30.18F WCI  12
6HR MIN TEMP:  21; 6HR MAX TEMP:  23;

ST JOSEPH      CLOUDY    21   2  43 SE15      30.20F WCI   8
6HR MIN TEMP:  20; 6HR MAX TEMP:  21;

CHILLICOTHE      N/A     22   5  48 SE9       30.27F WCI  12
6HR MIN TEMP:  20; 6HR MAX TEMP:  22;

KIRKSVILLE     CLOUDY    19   6  57 SE15      30.29F WCI   5
6HR MIN TEMP:  16; 6HR MAX TEMP:  19;


$$
MOZ066>068-077>081-088>096-101>105-140700-
...SOUTHWEST MISSOURI...

CITY           SKY/WX    TMP DP  RH WIND       PRES   REMARKS
SPRINGFIELD    CLOUDY    29   5  36 SE20G28   30.19F WCI  16
6HR MIN TEMP:  29; 6HR MAX TEMP:  35;

JOPLIN         PTCLDY    35  10  35 SE10      30.13F WCI  27
6HR MIN TEMP:  34; 6HR MAX TEMP:  39;


$$
MOZ032>034-039>042-045>050-055>058-069>072-140700-
...CENTRAL MISSOURI...

CITY           SKY/WX    TMP DP  RH WIND       PRES   REMARKS
COLUMBIA       CLOUDY    22   3  44 SE16      30.28F WCI   8
6HR MIN TEMP:  20; 6HR MAX TEMP:  22;

JEFFERSON CITY CLOUDY    24   4  42 SE14      30.32F WCI  12
6HR MIN TEMP:  21; 6HR MAX TEMP:  24;

ROLLA          CLOUDY    23   3  42 SE9       30.28S WCI  13
6HR MIN TEMP:  21; 6HR MAX TEMP:  23;

SEDALIA        CLOUDY    24   4  42 SE14      30.23F WCI  12
6HR MIN TEMP:  21; 6HR MAX TEMP:  24;

WHITEMAN AFB   CLOUDY    24   4  43 SE13G18   30.19F WCI  12
WARRENSBURG    CLOUDY    25   5  42 E12G18    30.20F WCI  14
OSAGE BEACH    CLOUDY    27   1  33 SE9G16    30.27F WCI  17

$$
MOZ051-052-059>065-140700-
...EAST CENTRAL MISSOURI...

CITY           SKY/WX    TMP DP  RH WIND       PRES   REMARKS
ST LOUIS INTL  CLOUDY    24   6  46 SE12      30.39F WCI  13
6HR MIN TEMP:  22; 6HR MAX TEMP:  24;

SPIRIT OF STL  CLOUDY    23   6  48 E3        30.38F
6HR MIN TEMP:  22; 6HR MAX TEMP:  23;

ST CHARLES     CLOUDY    22   8  55 E8        30.40F WCI  12
6HR MIN TEMP:  21; 6HR MAX TEMP:  22;


$$
MOZ072>076-082>087-097>100-106>115-140700-
...SOUTH CENTRAL AND SOUTHEAST MISSOURI...

CITY           SKY/WX    TMP DP  RH WIND       PRES   REMARKS
CAPE GIRARDEAU CLOUDY    25   7  46 E8        30.40F WCI  16
6HR MIN TEMP:  25; 6HR MAX TEMP:  26;

FARMINGTON     CLOUDY    23   7  50 SE9       30.33F WCI  13
6HR MIN TEMP:  21; 6HR MAX TEMP:  23;

POPLAR BLUFF   CLOUDY    27   8  44 E8        30.37F WCI  19
6HR MIN TEMP:  26; 6HR MAX TEMP:  27;

WEST PLAINS    CLOUDY    23   4  44 SE6       30.29F WCI  16
6HR MIN TEMP:  23; 6HR MAX TEMP:  28;


$$




USA.gov is the U.S. government's official web portal to all federal, state and local government web resources and services.